Regional Weather Roundup
Issued by NWS Sterling, VA

Home | Current Version | Previous Version | Text Only | Print | Product List | Glossary On
Versions: 1 2 3 4 5 6 7 8 9 10 11 12 13 14 15 16 17 18 19 20 21 22 23 24 25 26 27
000
ASUS41 KLWX 190710
RWRLWX

REGIONAL WEATHER ROUNDUP
NATIONAL WEATHER SERVICE BALTIMORE MD/WASHINGTON DC
200 AM EST THU JAN 19 2017

Note: "FAIR" indicates few or no clouds below 12,000 feet
with no significant weather and/or obstructions to visibility.
 TC=TEMPERATURE CELSIUS

 * =Non NWS site. Station does not report precipitation (e.g. rain,
    snow, etc.), thunder, or fog.

DCZ001-MDZ009-015-VAZ040>042-051-053>054-190800-
WASHINGTON METRO

CITY           SKY/WX    TMP DP  RH WIND       PRES   REMARKS
WASHINGTON NAT CLOUDY    47  36  65 N7        30.09R
DULLES         CLOUDY    42  34  73 NW10      30.08R
ANDREWS AFB    CLOUDY    45  35  67 NW9       30.06R
FT BELVOIR     CLOUDY    38  33  84 CALM      30.08R
QUANTICO       CLEAR     40  35  83 N6        30.10R
COLLEGE PARK*  CLOUDY    45  34  65 CALM      30.08R
LEESBURG*      CLOUDY    46  39  76 NW7       30.09R
GAITHERSBURG*  CLOUDY    41  34  75 NW6       30.11R

$$

MDZ006>007-011-014-190800-
BALTIMORE METRO

CITY           SKY/WX    TMP DP  RH WIND       PRES   REMARKS
BWI AIRPORT    CLOUDY    45  37  73 W6        30.07R
MD SCIENCE CTR   N/A     47  34  60 MISG      30.07R
ANNAPOLIS      CLOUDY    48  36  63 W7        30.06R
FORT MEADE*    CLOUDY    45  34  65 CALM      30.10R

$$

MDZ012-015-019>023-190800-
MARYLAND EASTERN SHORE

CITY           SKY/WX    TMP DP  RH WIND       PRES   REMARKS
OCEAN CITY     NOT AVBL
SALISBURY      PTCLDY    39  38  96 CALM      30.04F
BAY BRIDGE AP* CLOUDY    45  37  76 NW7       30.07R
CAMBRIDGE*     CLOUDY    45  36  70 CALM      30.06R
EASTON*        CLOUDY    47  37  70 N5        30.09R

$$

MDZ017>025-190800-
SOUTHERN MARYLAND

CITY           SKY/WX    TMP DP  RH WIND       PRES   REMARKS
PATUXENT RIVER CLOUDY    46  37  71 NW10      30.06R
ST INIGOES     MOCLDY    42  36  79 CALM      30.06R
LEONARDTOWN*   MOCLDY    45  34  65 NW5       30.08R

$$

MDZ003>005-190800-
NORTH CENTRAL MARYLAND

CITY           SKY/WX    TMP DP  RH WIND       PRES   REMARKS
FREDERICK*     CLOUDY    43  36  75 CALM      30.11R
HAGERSTOWN APT CLOUDY    43  34  70 W6        30.07R
WESTMINSTER*   CLOUDY    39  36  87 W3        30.05S

$$

MDZ501>502-190800-
WESTERN MARYLAND

CITY           SKY/WX    TMP DP  RH WIND       PRES   REMARKS
OAKLAND*       FOG       32  32 100 W12G18    30.04R VSB<1/4 WCI  23
CUMBERLAND*    CLOUDY    43  36  75 W7        30.13R

$$

VAZ025>031-190800-
SHENANDOAH VALLEY

CITY           SKY/WX    TMP DP  RH WIND       PRES   REMARKS
WINCHESTER*    CLOUDY    41  34  75 NW5       30.08R
FRONT ROYAL*   CLOUDY    41  36  81 CALM      30.08R
LURAY*         CLOUDY    32  32 100 CALM      30.08R
NEW MARKET*    CLOUDY    30  28  94 CALM      30.07R
STAUNTON*      CLOUDY    30  28  93 CALM      30.09R
WAYNESBORO*    CLOUDY    40  35  80 W8        30.06S

$$

WVZ021-048>050-054>055-190800-
EASTERN WEST VIRGINIA PANHANDLE

CITY           SKY/WX    TMP DP  RH WIND       PRES   REMARKS
MARTINSBURG    CLOUDY    44  34  67 W6        30.08S
PETERSBURG*    CLOUDY    32  32  99 CALM      30.11R

$$

VAZ036>039-050-190800-
CENTRAL FOOTHILLS

CITY           SKY/WX    TMP DP  RH WIND       PRES   REMARKS
CHARLOTTESVILL CLOUDY    39  34  82 CALM      30.07R
CULPEPER*      CLEAR     32  32  99 CALM      30.10R
ORANGE*          N/A     32  32 100 CALM      30.10R
GORDONSVILLE*  CLOUDY    32  32 100 CALM      30.08R
WARRENTON*     CLEAR     42  32  68 E3        30.08R

$$

VAZ055>057-190800-
NORTH AND CENTRAL PIEDMONT

CITY           SKY/WX    TMP DP  RH WIND       PRES   REMARKS
FREDERICKSBRG* CLEAR     40  36  86 CALM      30.09R
STAFFORD*      CLEAR     34  34  98 N3        30.13R

$$

NCZ024-NYZ072-PAZ021-071-VAZ022-071-190800-
OTHER REGIONAL OBSERVATIONS

CITY           SKY/WX    TMP DP  RH WIND       PRES   REMARKS
NEW YORK CITY  CLOUDY    40  35  83 CALM      30.05R
PHILADELPHIA   CLOUDY    45  38  76 NW3       30.05S
PITTSBURGH     CLOUDY    37  36  96 W7        30.09R
ROANOKE        CLOUDY    39  35  86 N7        30.10F
RICHMOND       CLOUDY    42  35  76 W3        30.08R
RALEIGH        PTCLDY    42  35  76 CALM      30.06F

$$

ANZ530>537-190800-
MARINE OBSERVATIONS

STATION/POSITION TIME  TEMP    WIND        PRES
                       AIR SEA DIR/SP/G
                 (UTC) (F)     (DEG/KT/KT) (MB)
THOMAS PT LIGHT  0700   46 39  300/ 10/ 10   N/A
BALT KEY BRIDGE  0648   45     270/  7/  9 1018.1R
COVE POINT       0648   45     340/  9/ 11 1018.8R
LEWISETTA        0648   44 43  340/  5/  7 1017.8R
SOLOMONS ISLAND  0648   46 42  330/  5/ 10   N/A
PINEY POINT      0648          320/  5/  5   N/A

$$





USA.gov is the U.S. government's official web portal to all federal, state and local government web resources and services.